310  
ASUS44 KMEG 151810  
RWRMEG  
MEMPHIS CWA HOURLY WEATHER ROUNDUP  
NATIONAL WEATHER SERVICE MEMPHIS TN  
100 PM CDT MON JUL 15 2019  
   
..WEST TENNESSEE
 
 
 
CITY SKY/WX TMP DP RH WIND PRES REMARKS
 
MEMPHIS INTL HVY RAIN 75 74 96 S30G39 29.96R VSB 3/4  
6HR MIN TEMP: 73; 6HR MAX TEMP: 77; 6HR PCP: 0.45;  
 
NWS MEMPHIS N/A 77 N/A N/A MISG N/A  
JACKSON CLOUDY 78 74 87 SE8G17 30.02F  
6HR MIN TEMP: 70; 6HR MAX TEMP: 78; 6HR PCP: 0.53;  
 
COVINGTON PTSUNNY 77 73 88 S10G16 29.97S  
BOLIVAR PTSUNNY 75 73 94 SE13G18 30.01F  
LEXINGTON CLOUDY 77 73 88 VRB7G15 30.06F  
SELMER MOSUNNY 77 72 83 SE13 30.05F  
DYERSBURG LGT RAIN 77 74 90 SE10G18 29.99F  
6HR MIN TEMP: 70; 6HR MAX TEMP: 77;  
 
UNION CITY PTSUNNY 75 73 94 E14 30.00F FOG  
PARIS CLOUDY 75 73 94 SE8 30.06F  
HUNTINGDON CLOUDY 79 73 83 S9G18 30.05F  
 
   
..EASTERN ARKANSAS
 
 
 
CITY SKY/WX TMP DP RH WIND PRES REMARKS
 
JONESBORO RAIN 76 74 93 S15G24 29.91F FOG  
6HR MIN TEMP: 73; 6HR MAX TEMP: 77; 6HR PCP: 0.19;  
 
WEST MEMPHIS LGT RAIN 78 76 93 S17 29.92F  
6HR MIN TEMP: 74; 6HR MAX TEMP: 78; 6HR PCP: 0.26;  
 
BATESVILLE LGT RAIN 76 74 93 S8 29.88F  
6HR MIN TEMP: 70; 6HR MAX TEMP: 77;  
 
NEWPORT CLOUDY 78 75 90 SE15 29.88F  
6HR MIN TEMP: 71; 6HR MAX TEMP: 79; 6HR PCP: 0.29;  
 
WALNUT RIDGE CLOUDY 79 75 87 S18 29.90F  
6HR MIN TEMP: 71; 6HR MAX TEMP: 79; 6HR PCP: 0.28;  
 
BLYTHEVILLE CLOUDY 78 72 81 S16G25 29.96F  
6HR MIN TEMP: 73; 6HR MAX TEMP: 78; 6HR PCP: 0.93;  
 
NW BLYTHEVILLE CLOUDY 77 73 88 SE17G24 29.95F  
SEARCY CLOUDY 81 75 82 S10 29.87S  
6HR MIN TEMP: 72; 6HR MAX TEMP: 81; 6HR PCP: 0.06;  
 
STUTTGART LGT RAIN 77 73 87 S18G24 29.88S  
6HR MIN TEMP: 73; 6HR MAX TEMP: 83; 6HR PCP: 0.03;  
 
PINE BLUFF PTSUNNY 79 70 74 S17G25 29.88S  
6HR MIN TEMP: 73; 6HR MAX TEMP: 80; 6HR PCP: 0.09;  
 
MONTICELLO CLOUDY 80 69 69 SW16G23 29.92R  
6HR MIN TEMP: 74; 6HR MAX TEMP: 82; 6HR PCP: 0.01;  
 
   
..NORTH MISSISSIPPI
 
 
 
CITY SKY/WX TMP DP RH WIND PRES REMARKS
 
TUPELO CLOUDY 79 72 79 S12 30.05S  
6HR MIN TEMP: 74; 6HR MAX TEMP: 79; 6HR PCP: 0.75;  
 
OXFORD LGT RAIN 73 73 100 S16G24 30.03R  
BATESVILLE N/A 75 72 88 S13G18 29.98F  
OLIVE BRANCH LGT RAIN 75 73 94 SE12G23 29.98S  
TUNICA N/A 73 70 88 S18G39 29.96R  
CLARKSDALE PTSUNNY 77 77 100 S24G31 29.94S  
CORINTH PTSUNNY 79 72 78 SE10G18 30.05F  
GREENWOOD CLOUDY 79 76 90 S12G22 29.99F  
6HR MIN TEMP: 73; 6HR MAX TEMP: 79; 6HR PCP: 0.68;  
 
COLUMBUS CLOUDY 79 73 80 S9 30.06R  
6HR MIN TEMP: 72; 6HR MAX TEMP: 79; 6HR PCP: 1.54;  
 
STARKVILLE FAIR 79 73 83 S9 30.06S  
GOLDEN TRIANGL PTSUNNY 80 75 84 S14G21 30.07S  
6HR MIN TEMP: 71; 6HR MAX TEMP: 80;  
 
   
..SOUTHEAST MISSOURI
 
 
 
CITY SKY/WX TMP DP RH WIND PRES REMARKS
 
KENNETT PTSUNNY 77 75 94 SE17G25 29.93S FOG  
MALDEN LGT RAIN 73 72 94 MISG 29.96F  
WEST PLAINS LGT RAIN 74 72 93 SE7 29.92F FOG  
6HR MIN TEMP: 69; 6HR MAX TEMP: 74; 6HR PCP: 0.32;  
 
POPLAR BLUFF CLOUDY 73 73 100 SE15G22 29.94F  
6HR MIN TEMP: 69; 6HR MAX TEMP: 73; 6HR PCP: 1.63;  
 
CAPE GIRARDEAU LGT RAIN 73 70 90 SE18G25 29.99F FOG  
6HR MIN TEMP: 71; 6HR MAX TEMP: 73; 6HR PCP: 1.10;  
 
   
..NORTHWEST ALABAMA
 
 
 
CITY SKY/WX TMP DP RH WIND PRES REMARKS
 
MUSCLE SHOALS LGT RAIN 76 71 85 S8 30.11F  
6HR MIN TEMP: 73; 6HR MAX TEMP: 78; 6HR PCP: 0.07;  
 
   
..MIDDLE TENNESSEE
 
 
 
CITY SKY/WX TMP DP RH WIND PRES REMARKS
 
NASHVILLE CLOUDY 83 73 72 SE5 30.13F  
6HR MIN TEMP: 74; 6HR MAX TEMP: 84; 6HR PCP: 0.03;  
 
CLARKSVILLE PTSUNNY 82 76 81 SE9 30.10F  
6HR MIN TEMP: 72; 6HR MAX TEMP: 82; 6HR PCP: 0.05;  
 
COLUMBIA SUNNY 81 79 94 VRB6G13 30.10F  
LAWRENCEBURG PTCLDY 79 73 83 S8 30.13S  
LEWISBURG CLEAR 82 72 69 S10 30.12F  
 
   
..WESTERN KENTUCKY
 
 
 
CITY SKY/WX TMP DP RH WIND PRES REMARKS
 
PADUCAH RAIN 74 71 91 E10 30.05F FOG  
6HR MIN TEMP: 72; 6HR MAX TEMP: 74; 6HR PCP: 0.55;  
 
FORT CAMPBELL FAIR 80 76 89 E12 30.09F  
6HR MIN TEMP: 72; 6HR MAX TEMP: 80; 6HR PCP: 0.03;  
 
   
..CENTRAL ARKANSAS
 
 
 
CITY SKY/WX TMP DP RH WIND PRES REMARKS
 
LITTLE ROCK CLOUDY 76 73 91 S9 29.85F  
6HR MIN TEMP: 72; 6HR MAX TEMP: 77; 6HR PCP: 0.09;  
 
SKY/WX REPORTED AS FAIR MEANS FEW OR NO CLOUDS BELOW  
12 THOUSAND FEET.  
 
 
 
CLICK HERE TO GO TO PREVIOUS BULLETINS.

The Nexlab TN Page
The Nexlab MS Page
The Nexlab AR Page Main Text Page